[[{"header":{"parameterUnit":"m.s-1","parameterCategory":1,"la1":30.2991,"la2":30.254,"lo1":-89.0895,"lo2":-89.0444,"dy":0.0017,"dx":0.0017,"nx":28,"ny":28,"refTime":"2025-04-23T03:00:00:Z","depth":0,"parameterNumber":2,"parameterNumberName":"U-component_of_WINDS"},"data":[0,0,0,0,0,0,0,0,0,0,0,0,0,0,0,0,0,0,0,0,0,0,0,0,0,0,0,0,0,0,0,0,0,0,0,0,0,0,0,0,0,0,0,0,0,0,0,0,0,0,0,0,0,0,0,0,0,0,-0.4971,-0.497,0,-0.4918,-0.4918,-0.4917,-0.4876,-0.4876,-0.4875,-0.4875,-0.4825,-0.4824,-0.4823,0,0,0,0,0,0,0,0,0,0,0,0,0,-0.504,-0.5039,-0.4971,-0.497,-0.4969,-0.4918,-0.4917,-0.4917,-0.4876,-0.4876,-0.4875,-0.4875,-0.4825,-0.4824,-0.4823,0,0,0,0,0,0,0,0,0,0,0,0,0,-0.5001,-0.5038,-0.4971,-0.4943,-0.494,-0.4918,-0.4917,-0.4917,-0.4876,-0.4876,-0.4875,-0.4874,-0.4825,-0.4824,-0.4822,-0.4826,0,0,-0.4818,-0.4817,0,0,0,0,0,0,0,0,-0.5003,-0.4998,-0.4948,-0.4945,-0.4941,-0.4903,-0.4923,-0.4886,-0.4876,-0.4901,-0.4875,-0.4874,-0.4851,-0.4848,-0.4839,-0.4823,-0.4821,-0.4818,-0.4817,-0.4816,-0.4816,0,0,0,0,0,0,0,-0.5006,-0.5,-0.495,-0.4947,-0.4943,-0.4934,-0.4928,-0.4916,-0.488,-0.4898,-0.4895,-0.4889,-0.485,-0.4841,-0.4838,-0.482,-0.4818,-0.4817,-0.4816,-0.4815,-0.4805,-0.4805,0,0,0,0,0,0,-0.5012,-0.5003,-0.4952,-0.4948,-0.4971,-0.4933,-0.4926,-0.4916,-0.488,-0.4874,-0.489,-0.4888,-0.4844,-0.484,-0.4836,-0.4837,-0.4816,-0.4815,-0.4814,-0.4804,-0.4805,-0.4806,0,0,0,0,0,0,-0.5014,-0.5008,-0.4954,-0.4975,-0.4967,-0.4933,-0.4921,-0.4915,-0.4906,-0.4874,-0.4867,-0.4887,-0.4843,-0.4838,-0.4828,-0.4835,-0.4814,-0.4813,-0.4804,-0.4804,-0.4805,-0.4841,0,0,0,0,0,0,-0.5016,-0.5009,-0.5009,-0.4975,-0.4966,-0.4946,-0.4922,-0.4915,-0.4904,-0.49,-0.487,-0.4864,-0.4842,-0.4831,-0.4827,-0.4833,-0.4812,-0.4803,-0.4804,-0.4805,-0.4839,-0.4842,-0.4846,0,0,0,0,0,-0.5019,-0.5022,-0.5009,-0.5003,-0.4965,-0.4947,-0.4942,-0.4915,-0.4904,-0.4905,-0.4884,-0.4865,-0.4835,-0.483,-0.4825,-0.4831,-0.4802,-0.4804,-0.4805,-0.4837,-0.4842,-0.4846,0,0,0,0,0,0,-0.5059,-0.5017,-0.5002,-0.4994,-0.4974,-0.494,-0.4939,-0.4921,-0.4905,-0.4902,-0.4871,-0.4865,-0.4859,-0.4844,-0.4839,-0.4832,-0.4816,-0.4817,-0.4842,-0.4846,-0.485,-0.4854,-0.4811,0,0,0,0,0,-0.5066,-0.5053,-0.5018,-0.5014,-0.5005,-0.4974,-0.4965,-0.4946,-0.4925,-0.4916,-0.4895,-0.4875,-0.4862,-0.4853,-0.4839,-0.4836,-0.4829,-0.4838,-0.4841,-0.4845,-0.4846,-0.4844,-0.4847,-0.481,-0.481,-0.481,0,0,-0.5083,-0.5058,-0.5052,-0.5022,-0.5004,-0.4992,-0.4967,-0.4956,-0.4947,-0.4915,-0.4904,-0.4888,-0.4864,-0.4858,-0.4855,-0.4846,-0.4854,-0.4846,-0.4849,-0.4848,-0.4845,-0.4849,-0.4852,-0.4811,-0.4811,-0.4811,0,0,-0.5106,-0.5086,-0.508,-0.5063,-0.5036,-0.5015,-0.5014,-0.4982,-0.497,-0.4958,-0.4933,-0.4924,-0.49,-0.4885,-0.4874,-0.4891,-0.4874,-0.4888,-0.4907,-0.4905,-0.4908,-0.491,-0.4917,-0.492,-0.4889,-0.4889,-0.4889,0,-0.513,-0.511,-0.508,-0.507,-0.5058,-0.5027,-0.5022,-0.5007,-0.4977,-0.497,-0.496,-0.4931,-0.4913,-0.4903,-0.4907,-0.4899,-0.4897,-0.4891,-0.491,-0.4912,-0.4914,-0.492,-0.4922,-0.4891,-0.489,-0.489,-0.489,0,-0.5141,-0.5128,-0.5127,-0.5098,-0.5085,-0.5078,-0.5049,-0.504,-0.5023,-0.5003,-0.4993,-0.497,-0.495,-0.4946,-0.493,-0.4934,-0.493,-0.4915,-0.4899,-0.492,-0.4925,-0.4927,-0.4893,-0.4893,-0.4892,-0.4892,0,0,-0.5188,-0.5142,-0.5142,-0.5129,-0.5097,-0.5087,-0.5078,-0.5058,-0.5051,-0.5032,-0.5025,-0.5006,-0.4992,-0.498,-0.4961,-0.496,-0.4976,-0.4946,-0.4945,-0.4952,-0.498,-0.4991,-0.4994,-0.4964,-0.4964,-0.4965,-0.4982,0,-0.5207,-0.5189,-0.5162,-0.5153,-0.5141,-0.5112,-0.5105,-0.5085,-0.5067,-0.5055,-0.5035,-0.5022,-0.5005,-0.4998,-0.4995,-0.4975,-0.4981,-0.4973,-0.4958,-0.4958,-0.4965,-0.4997,-0.5009,-0.5026,-0.4984,-0.4984,-0.4984,0,-0.5226,-0.5207,-0.5197,-0.5166,-0.516,-0.5154,-0.5133,-0.5122,-0.5099,-0.5086,-0.5072,-0.5052,-0.5042,-0.5027,-0.5015,-0.501,-0.5002,-0.4991,-0.4991,-0.4989,-0.4973,-0.4996,-0.5031,-0.5034,-0.4987,-0.4987,-0.4987,0,-0.5262,-0.5234,-0.5224,-0.5214,-0.5177,-0.5173,-0.5158,-0.5135,-0.5124,-0.5107,-0.51,-0.5082,-0.5072,-0.5059,-0.5035,-0.5026,-0.5026,-0.5008,-0.5015,-0.5016,-0.5017,-0.5017,-0.5052,-0.5012,-0.5012,-0.5012,-0.5011,0,-0.5286,-0.5281,-0.524,-0.5234,-0.5228,-0.5198,-0.5193,-0.5175,-0.5155,-0.5146,-0.5119,-0.5112,-0.508,-0.5069,-0.505,-0.5043,-0.5039,-0.5029,-0.5024,-0.5031,-0.5032,-0.5026,-0.5024,-0.5012,-0.5012,-0.5012,-0.5012,0,-0.5325,-0.5297,-0.5285,-0.5251,-0.5242,-0.5239,-0.5211,-0.5205,-0.5185,-0.5174,-0.5169,-0.5139,-0.5125,-0.5099,-0.5077,-0.5065,-0.5062,-0.5053,-0.5069,-0.5066,-0.5075,-0.5075,-0.5107,-0.511,-0.5068,-0.5068,-0.5069,0,-0.5342,-0.5338,-0.5303,-0.5294,-0.528,-0.5266,-0.5255,-0.5226,-0.5215,-0.5189,-0.5186,-0.517,-0.5155,-0.5133,-0.511,-0.5094,-0.5085,-0.5097,-0.5082,-0.509,-0.5085,-0.5086,-0.5086,-0.5101,-0.5101,-0.5102,-0.5102,0,-0.5376,-0.5362,-0.5347,-0.5326,-0.5313,-0.5296,-0.5278,-0.5273,-0.5239,-0.5229,-0.5213,-0.5202,-0.5179,-0.5163,-0.5144,-0.5129,-0.5111,-0.5107,-0.5108,-0.5116,-0.5125,-0.512,-0.5079,-0.5106,-0.5106,-0.5106,-0.5105,-0.5105,-0.5405,-0.54,-0.5374,-0.5357,-0.534,-0.5324,-0.5316,-0.5295,-0.5281,-0.5259,-0.5243,-0.5229,-0.5207,-0.5178,-0.5165,-0.5154,-0.5145,-0.5146,-0.5147,-0.5148,-0.5151,-0.5126,-0.515,-0.515,-0.515,-0.515,-0.515,0,-0.5438,-0.542,-0.5404,-0.5379,-0.5366,-0.5348,-0.5327,-0.5318,-0.5305,-0.5285,-0.5271,-0.5253,-0.5238,-0.5213,-0.5196,-0.5192,-0.5183,-0.5188,-0.5188,-0.5186,-0.5159,-0.516,-0.5196,-0.5196,-0.5196,-0.5196,-0.5196,-0.5196,-0.5453,-0.5443,-0.5426,-0.5408,-0.539,-0.5375,-0.5364,-0.5349,-0.5333,-0.5314,-0.53,-0.5284,-0.5262,-0.5243,-0.5228,-0.5221,-0.5217,-0.5225,-0.5216,-0.5192,-0.5187,-0.5183,-0.5184,-0.5224,-0.5224,-0.5243,-0.5243,-0.5243]},{"header":{"parameterUnit":"m.s-1","parameterCategory":1,"la1":30.2991,"la2":30.254,"lo1":-89.0895,"lo2":-89.0444,"dy":0.0017,"dx":0.0017,"nx":28,"ny":28,"refTime":"2025-04-23T03:00:00:Z","depth":0,"parameterNumber":3,"parameterNumberName":"V-component_of_WINDS"},"data":[0,0,0,0,0,0,0,0,0,0,0,0,0,0,0,0,0,0,0,0,0,0,0,0,0,0,0,0,0,0,0,0,0,0,0,0,0,0,0,0,0,0,0,0,0,0,0,0,0,0,0,0,0,0,0,0,0,0,2.8189,2.8188,0,2.8162,2.8162,2.8162,2.8123,2.8122,2.8121,2.8121,2.8092,2.8092,2.8091,0,0,0,0,0,0,0,0,0,0,0,0,0,2.8205,2.8205,2.8189,2.8188,2.8188,2.8162,2.8162,2.8162,2.8123,2.8122,2.8121,2.812,2.8092,2.8092,2.8091,0,0,0,0,0,0,0,0,0,0,0,0,0,2.819,2.8205,2.8189,2.8166,2.8163,2.8162,2.8162,2.8162,2.8123,2.8122,2.8121,2.812,2.8092,2.8092,2.8091,2.8111,0,0,2.8091,2.8091,0,0,0,0,0,0,0,0,2.8191,2.819,2.8169,2.8167,2.8165,2.8145,2.8157,2.8144,2.8123,2.8138,2.8121,2.8119,2.811,2.8108,2.8106,2.8109,2.8108,2.8091,2.8091,2.8091,2.8091,0,0,0,0,0,0,0,2.8192,2.8191,2.8178,2.8169,2.8166,2.8156,2.8153,2.8155,2.813,2.8137,2.8134,2.8131,2.8109,2.8106,2.8105,2.8107,2.8091,2.8091,2.809,2.809,2.8127,2.8128,0,0,0,0,0,0,2.8197,2.8192,2.8179,2.8177,2.8176,2.8157,2.8153,2.8152,2.813,2.8126,2.8132,2.813,2.8107,2.8105,2.8103,2.8125,2.8091,2.809,2.809,2.8126,2.8127,2.8128,0,0,0,0,0,0,2.8197,2.8196,2.818,2.8184,2.8181,2.8158,2.8157,2.8152,2.8149,2.8127,2.8122,2.8134,2.8106,2.8104,2.8109,2.8123,2.809,2.809,2.8124,2.8126,2.8128,2.8167,0,0,0,0,0,0,2.8198,2.8196,2.8203,2.8184,2.8181,2.8187,2.8158,2.8152,2.8149,2.8146,2.8127,2.8123,2.8105,2.811,2.8109,2.8122,2.809,2.8123,2.8125,2.8127,2.8165,2.817,2.8175,0,0,0,0,0,2.8199,2.8215,2.8204,2.8202,2.8189,2.8188,2.8186,2.8165,2.8151,2.8157,2.8143,2.8123,2.8122,2.8111,2.811,2.8123,2.8122,2.8125,2.8127,2.8162,2.8169,2.8175,0,0,0,0,0,0,2.8235,2.8212,2.8199,2.821,2.8201,2.8181,2.8189,2.8173,2.8167,2.8164,2.8138,2.8134,2.8143,2.8134,2.8122,2.8141,2.8119,2.8122,2.8147,2.8153,2.8158,2.8159,2.809,0,0,0,0,0,2.8244,2.8245,2.8225,2.8236,2.8233,2.8212,2.821,2.8196,2.8185,2.8181,2.8167,2.8157,2.8155,2.8153,2.815,2.8164,2.8159,2.8172,2.8177,2.8182,2.8184,2.8191,2.8197,2.8136,2.8136,2.8136,0,0,2.8263,2.8251,2.8253,2.8243,2.8235,2.8236,2.8209,2.8211,2.8212,2.8181,2.8186,2.8176,2.8163,2.8173,2.8177,2.8166,2.82,2.8185,2.8188,2.8188,2.8194,2.82,2.8205,2.8138,2.8138,2.8137,0,0,2.8298,2.8289,2.8298,2.8291,2.8279,2.8265,2.8267,2.825,2.8242,2.8247,2.8225,2.8225,2.8221,2.8214,2.8209,2.8245,2.8226,2.8244,2.827,2.8278,2.8283,2.8287,2.8299,2.8304,2.8247,2.8247,2.8247,0,2.8323,2.8324,2.8304,2.8309,2.8305,2.8279,2.8288,2.8282,2.8269,2.8267,2.8255,2.8251,2.824,2.8249,2.8258,2.8255,2.8257,2.8245,2.8284,2.8288,2.8291,2.8303,2.8308,2.8249,2.8249,2.8248,2.8248,0,2.8356,2.8357,2.8366,2.8356,2.8354,2.836,2.8341,2.8341,2.8328,2.8316,2.8322,2.8309,2.8303,2.8304,2.829,2.8311,2.8304,2.8288,2.8266,2.8299,2.831,2.8314,2.8252,2.8251,2.8251,2.825,0,0,2.841,2.839,2.8394,2.8389,2.8376,2.8376,2.8383,2.8378,2.8379,2.8372,2.8376,2.8374,2.836,2.8355,2.8341,2.8348,2.8377,2.8331,2.833,2.834,2.84,2.8411,2.8417,2.8366,2.8367,2.8367,2.8401,0,2.8442,2.8451,2.8434,2.8447,2.8449,2.8426,2.8431,2.8423,2.8413,2.8413,2.8401,2.8401,2.8382,2.8379,2.8385,2.8372,2.8389,2.837,2.8369,2.8369,2.8372,2.8422,2.8434,2.8466,2.8405,2.8406,2.8406,0,2.8479,2.8475,2.8489,2.8476,2.8476,2.8481,2.8476,2.8477,2.8468,2.846,2.8456,2.844,2.8445,2.8425,2.8432,2.8419,2.8419,2.8413,2.8413,2.8411,2.8389,2.8421,2.8476,2.8481,2.8412,2.8412,2.8411,0,2.8517,2.8516,2.8524,2.8521,2.8506,2.8511,2.8504,2.8495,2.8494,2.8489,2.8488,2.8485,2.8482,2.848,2.8463,2.845,2.8473,2.8451,2.8466,2.8466,2.847,2.847,2.8525,2.8471,2.8471,2.8471,2.8471,0,2.8553,2.8563,2.8541,2.8546,2.8556,2.8538,2.8548,2.854,2.8532,2.8535,2.8515,2.8518,2.8496,2.8497,2.8484,2.8492,2.8491,2.8485,2.8481,2.8486,2.8487,2.8484,2.8481,2.8472,2.8472,2.8472,2.8472,0,2.8597,2.8583,2.859,2.8577,2.8574,2.8582,2.857,2.8574,2.8563,2.8568,2.8568,2.8551,2.8551,2.8535,2.8531,2.8523,2.8536,2.8529,2.8539,2.8537,2.8553,2.8551,2.8607,2.8614,2.8557,2.8557,2.8558,0,2.862,2.8627,2.8615,2.8616,2.8612,2.8613,2.8613,2.8595,2.8595,2.8587,2.8593,2.8592,2.859,2.8592,2.8579,2.8577,2.8569,2.8589,2.8568,2.8573,2.8569,2.8568,2.8569,2.8592,2.8593,2.8594,2.8594,0,2.8663,2.8657,2.8657,2.8655,2.8655,2.8653,2.8649,2.8651,2.8632,2.8633,2.8634,2.8633,2.8631,2.863,2.8626,2.8619,2.8604,2.8601,2.8604,2.8609,2.8615,2.8612,2.855,2.8599,2.8599,2.8598,2.8598,2.8598,2.8697,2.8703,2.8696,2.8697,2.8692,2.869,2.8694,2.8685,2.8685,2.8683,2.8673,2.8675,2.8668,2.8661,2.8657,2.8659,2.8649,2.8654,2.8655,2.8656,2.8659,2.8616,2.8658,2.8658,2.8658,2.8657,2.8657,0,2.8739,2.8734,2.8735,2.8731,2.8733,2.872,2.8715,2.8717,2.872,2.8715,2.8715,2.8716,2.8717,2.8705,2.8704,2.8708,2.87,2.8708,2.8707,2.8706,2.8668,2.8665,2.8714,2.8714,2.8714,2.8714,2.8714,2.8714,2.8761,2.877,2.8763,2.877,2.8765,2.8768,2.8767,2.8765,2.8761,2.8764,2.8764,2.8758,2.875,2.8749,2.8748,2.8745,2.8745,2.8755,2.8749,2.8714,2.8708,2.8703,2.87,2.8755,2.8755,2.8786,2.8787,2.8787]}]]